Flag for Canada Weather past 2 weeks in Québec, Quebec, Canada

10 °F


Feels Like: 4 °F
Forecast: 10 / 25 °F
Wind: 3 mph from North

Location: Quebec Weather Station

Current Time: Nov 30, 2015 at 4:00:29 AM

Latest Report: Nov 30, 2015 at 3:00 AM

Visibility: 15 mi

Pressure: 30.55 "Hg

Humidity: 72%

Dew point: 3 °F

Location of QuébecLocation

Historic Weather in Québec — Graph


Québec temperature yesterday

Maximum temperature yesterday: 30 °F (at 1:00 PM)
Minimum temperature yesterday: 14 °F (at 11:00 PM)
Average temperature yesterday: 23 °F

Past Weeks' High & Low Weather Summary

High50 °F (Nov 27, 11:00 AM)100% (Nov 19, 6:00 PM)30.78 "Hg (Nov 19, 6:00 PM)
Low10 °F (Nov 25, 7:00 AM)37% (Nov 23, 2:00 PM)29.78 "Hg (Nov 22, 11:00 AM)
Average32 °F73%30.25 "Hg
* Reported Nov 15 1:00 AM — Nov 30 1:00 AM, Québec, Weather by CustomWeather, © 2015

Note: Actual official high and low records may vary slightly from our data, if they occured in-between our weather recording intervals... More about our weather records


Québec weather history for previous 24 hours

Time TempWeatherWind HumidityBarometerVisibility
1:00 AM
Mon, Nov 30
12 °FClear.7 mph62%30.53 "Hg15 mi
12:00 AM14 °FClear.9 mph57%30.52 "Hg15 mi
11:00 PM
Sun, Nov 29
14 °FClear.8 mph62%30.51 "Hg15 mi
10:00 PM16 °FPassing clouds.10 mph57%30.50 "Hg15 mi
9:00 PM18 °FPassing clouds.5 mph62%30.50 "Hg15 mi
8:00 PM19 °FClear.7 mph58%30.47 "Hg15 mi
7:00 PM19 °FClear.6 mph58%30.45 "Hg15 mi
6:00 PM21 °FClear.7 mph58%30.42 "Hg15 mi
5:00 PM23 °FPassing clouds.8 mph54%30.40 "Hg15 mi
4:00 PM25 °FPassing clouds.10 mph50%30.37 "Hg30 mi
3:00 PM27 °FScattered clouds.10 mph46%30.34 "Hg30 mi
2:00 PM28 °FScattered clouds.14 mph47%30.31 "Hg30 mi
1:00 PM30 °FPartly sunny.8 mph47%30.29 "Hg30 mi
12:00 PM28 °FPartly sunny.8 mph51%30.29 "Hg30 mi
11:00 AM27 °FBroken clouds.7 mph54%30.29 "Hg30 mi
10:00 AM27 °FMore clouds than sun.7 mph64%30.29 "Hg30 mi
9:00 AM27 °FPartly sunny.7 mph74%30.27 "Hg30 mi
8:00 AM25 °FOvercast.7 mph80%30.27 "Hg25 mi
7:00 AM25 °FLight mixture of precip. Passing clouds.9 mph74%30.25 "Hg20 mi
6:00 AM23 °FPassing clouds.9 mph80%30.24 "Hg15 mi
5:00 AM21 °FPassing clouds.9 mph86%30.23 "Hg15 mi
4:00 AM21 °FPassing clouds.13 mph86%30.22 "Hg15 mi
Weather by CustomWeather, © 2015

See weather overviewHow to use our weather pages